TIANMU-1 20

Last updated on Sat Aug 15 2026 00:02:41 GMT+0000 (Coordinated Universal Time)

1 58661U 23208B 26226.60718826 .00004718 00000+0 14778-3 0 9996 2 58661 97.4494 343.9499 0008544 112.9828 247.2316 15.33564964146370
UTC large
Height (km)
Speed (km/s)
/
Latitude / Longitude
Inclination (degrees)
Orbital Period (minutes)
Azimuth
Elevation
Range (km)
Doppler Factor

Next 0 passes for location: London (51.5072 / 0.1276)

No passes found over London.
TIANMU-1 20